Tracking 35331 objects as of 14-Sep-2026
HD Live streaming from Space Station
objects crossing your sky now

KOREASAT 116

Track KOREASAT 116 now!


NORAD ID: 45920
Int'l Code: 2020-048A
Launch date: July 20, 2020
Source: United States (US)
Launch site: AIR FORCE EASTERN TEST RANGE (AFETR)
Your satellite tracking list
Your tracking list is empty




NASA's NSSDC Master Catalog

Two Line Element Set (TLE):
1 45920U 20048A   26257.24162416 -.00000371  00000-0  00000-0 0  9994
2 45920   0.0148 245.0799 0000977 274.5164  36.8142  1.00274423 22532
Source of the keplerian elements: AFSPC